CARTOSAT-2F

Last updated on Mon Jun 22 2026 00:02:52 GMT+0000 (Coordinated Universal Time)

1 43111U 18004A 26172.48967356 .00003566 00000+0 17250-3 0 9996 2 43111 97.4787 232.0827 0001151 183.3047 176.8180 15.19244053467981
UTC large
Height (km)
Speed (km/s)
/
Latitude / Longitude
Inclination (degrees)
Orbital Period (minutes)
Azimuth
Elevation
Range (km)
Doppler Factor

Next 0 passes for location: London (51.5072 / 0.1276)

No passes found over London.
CARTOSAT-2F